STARLINK-1039 (44744 NORAD) Tracking and Keplerian Element Data

This shows tracking and keplerian element data for the satellite.

Feedback or suggestion? Click here.




ElementValue
Catalog44744
NameSTARLINK-1039
Epoch Orbit161
Epoch Day93.91667824
Epoch Year2020
RAAN233.6403
Inclination53.0011
Eccentricity0.0001113
Argument of Perigee92.7962
Mean Anonmoly109.8506
Mean Motion15.05586676
Decay Rate8.659E-05
L11 44744U 19074AH 20093.91667824 .00008659 00000-0 61258-3 0 9994
L22 44744 53.0011 233.6403 0001113 92.7962 109.8506 15.05586676 1613

Live tracking and technical data element details for STARLINK-1039 (NORAD 44744). STARLINK-1039 can be tracked NOW for your location showing map with azimuth and elevation plus other details from your city location.

Track the satellite on the map from your city or location and see movement details for azimuth, elevation, latitude, longitude, range, height, and movement on the map or in text.







IsCatalogInMostPopularTable: catalog: 44744, numindb: 45
Update: records affected: 1



GetName: 44744 STARLINK-1039

Hit Count: updated at: Sat, 04 Apr 2020 00:12:05 GMT